Location: Aalen
(48.8330°N, 10.1000°E)
Time: 20:35:26
(UTC+02:00)

S-56A Canister/Altair - Pass Details

Date: 10 August 2021
Orbit: 632 x 2500 km, 38.9° (Epoch: 19 September)

Event Time Altitude Azimuth Distance (km) Brightness Sun altitude
Rises 14:14:27 0° 238° (WSW) 4,657 11.9 55.1°
Reaches altitude 10° 14:17:17 10° 233° (SW) 3,906 11.8 54.9°
Maximum altitude 14:27:31 49° 163° (SSE) 2,571 11.6 54.2°
Drops below altitude 10° 14:41:08 10° 95° (E) 5,116 11.7 53.1°
Sets 14:45:27 0° 91° (E) 6,177 11.9 52.7°
